Lincoln, NE

6:36 PM CST on February 26, 2017 (GMT -0600)
Lincoln Municipal

Weather History for KLNK - January, 2010

Change the Weather History Date:

Sunday, January 17, 2010

  Actual Average Record
Temperature  
Mean Temperature 31 °F 24 °F  
Max Temperature 32 °F 35 °F 64 °F (1986)
Min Temperature 29 °F 14 °F -16 °F (1930)
Degree Days  
Heating Degree Days 34 41  
Month to date heating degree days 915 694  
Since 1 July heating degree days 3606 3139  
Cooling Degree Days 0 0  
Month to date cooling degree days 0 0  
Year to date cooling degree days 0 0  
Moisture  
Dew Point 29 °F    
Average Humidity 93    
Maximum Humidity 100    
Minimum Humidity 85    
Precipitation  
Precipitation 0.00 in 0.02 in 0.45 in (1960)
Month to date precipitation 0.49 0.33  
Year to date precipitation 0.49 0.33  
Snow  
Snow 0.00 in 0.10 in - ()
Month to date snowfall 6.9 2.7  
Since 1 July snowfall 32.4 11.4  
Snow Depth 11.00 in    
Sea Level Pressure  
Sea Level Pressure 29.92 in    
Wind  
Wind Speed 5 mph (NNE)    
Max Wind Speed 13 mph    
Max Gust Speed 15 mph    
Visibility 1 miles    
Events Fog    
T = Trace of Precipitation, MM = Missing Value Source: NWS Daily Summary

Daily Weather History Graph

Daily Weather History Graph

Search for Another Location

Airport or City:

Trip Planner

Search our weather history database for the weather conditions in past years. The results will help you decide how hot, cold, wet, or windy it might be!

Date:

Astronomy

Jan. 17, 2010 Rise Set
Actual Time 7:48 AM CST 5:26 PM CST
Civil Twilight 7:18 AM CST 5:56 PM CST
Nautical Twilight 6:44 AM CST 6:30 PM CST
Astronomical Twilight 6:11 AM CST 7:02 PM CST
Moon 8:55 AM CST (1/17) 8:00 PM CST (1/17)
Length of Visible Light 10h 38m
Length of Day
9h 37m
Waxing Crescent, 5% of the Moon is Illuminated
Jan 17
Waxing Crescent
Jan 23
First Quarter
Jan 30
Full
Feb 5
Last Quarter
Feb 13
New

Hourly Weather History & Observations

Time (CST) Temp. Windchill Dew Point Humidity Pressure Visibility Wind Dir Wind Speed Gust Speed Precip Events Conditions
12:54 AM 32.0 °F 25.6 °F 32.0 °F 100% 29.94 in 0.5 mi South 6.9 mph - N/A Fog Fog
1:19 AM 32.0 °F 25.6 °F 30.2 °F 93% 29.91 in 0.2 mi South 6.9 mph - N/A Fog Fog
1:30 AM 32.0 °F 25.6 °F 30.2 °F 93% 29.90 in 0.5 mi South 6.9 mph - N/A Fog Fog
1:54 AM 32.0 °F 26.4 °F 30.9 °F 96% 29.94 in 0.5 mi South 5.8 mph - N/A Fog Fog
2:10 AM 32.0 °F 26.4 °F 30.2 °F 93% 29.90 in 0.2 mi South 5.8 mph - N/A Fog Fog
2:25 AM 32.0 °F 26.4 °F 30.2 °F 93% 29.90 in 0.5 mi South 5.8 mph - N/A Fog Fog
2:50 AM 32.0 °F 24.8 °F 30.2 °F 93% 29.90 in 0.2 mi South 8.1 mph - N/A Fog Fog
2:54 AM 32.0 °F 24.8 °F 30.9 °F 96% 29.94 in 0.2 mi South 8.1 mph - N/A Fog Fog
3:17 AM 32.0 °F 24.2 °F 30.2 °F 93% 29.90 in 0.5 mi South 9.2 mph - N/A Fog Fog
3:54 AM 32.0 °F 24.2 °F 30.9 °F 96% 29.93 in 0.5 mi South 9.2 mph - N/A Fog Fog
4:09 AM 32.0 °F 23.6 °F 30.2 °F 93% 29.89 in 1.0 mi South 10.4 mph - N/A   Overcast
4:27 AM 30.2 °F 23.4 °F 30.2 °F 100% 29.89 in 0.5 mi SSW 6.9 mph - N/A Fog Light Freezing Fog
4:54 AM 30.9 °F 22.8 °F 30.0 °F 96% 29.91 in 0.5 mi South 9.2 mph - N/A Fog Light Freezing Fog
5:54 AM 30.9 °F 22.8 °F 30.0 °F 96% 29.91 in 0.8 mi SSW 9.2 mph - N/A   Overcast
6:54 AM 30.9 °F 27.5 °F 30.0 °F 96% 29.90 in 0.2 mi SSW 3.5 mph - N/A Fog Light Freezing Fog
7:08 AM 30.2 °F 21.9 °F 28.4 °F 93% 29.87 in 0.8 mi South 9.2 mph - N/A   Mist
7:54 AM 30.0 °F 23.2 °F 28.9 °F 96% 29.90 in 0.2 mi SSW 6.9 mph - N/A Fog Light Freezing Fog
8:54 AM 28.9 °F 22.8 °F 28.0 °F 96% 29.91 in 0.2 mi SW 5.8 mph - N/A Fog Light Freezing Fog
9:54 AM 28.9 °F - 27.0 °F 92% 29.94 in 0.2 mi Calm Calm - N/A Fog Light Freezing Fog
10:02 AM 28.4 °F - 28.4 °F 100% 29.90 in 0.5 mi Calm Calm - N/A Fog Light Freezing Fog
10:22 AM 28.4 °F 24.6 °F 28.4 °F 100% 29.91 in 1.8 mi NW 3.5 mph - N/A   Overcast
10:31 AM 28.4 °F - 28.4 °F 100% 29.90 in 0.5 mi Calm Calm - N/A Fog Light Freezing Fog
10:54 AM 30.0 °F - 28.9 °F 96% 29.94 in 0.5 mi Calm Calm - N/A Fog Light Freezing Fog
11:54 AM 30.0 °F - 28.9 °F 96% 29.92 in 0.5 mi Calm Calm - N/A Fog Light Freezing Fog
12:01 PM 30.2 °F - 28.4 °F 93% 29.88 in 2.0 mi Calm Calm - N/A   Overcast
12:14 PM 30.2 °F - 30.2 °F 100% 29.87 in 1.8 mi Calm Calm - N/A   Overcast
12:24 PM 30.2 °F - 28.4 °F 93% 29.87 in 2.0 mi Calm Calm - N/A   Overcast
12:42 PM 30.2 °F - 28.4 °F 93% 29.87 in 2.0 mi Calm Calm - N/A   Overcast
12:54 PM 30.0 °F - 28.9 °F 96% 29.90 in 2.0 mi Calm Calm - N/A   Overcast
1:47 PM 30.2 °F - 28.4 °F 93% 29.85 in 1.5 mi Calm Calm - N/A   Overcast
1:54 PM 30.9 °F - 28.9 °F 92% 29.88 in 1.2 mi Calm Calm - N/A   Overcast
2:22 PM 30.2 °F - 28.4 °F 93% 29.86 in 0.8 mi Calm Calm - N/A   Overcast
2:51 PM 30.2 °F 26.7 °F 28.4 °F 93% 29.86 in 0.5 mi NE 3.5 mph - N/A Fog Light Freezing Fog
2:54 PM 30.9 °F 26.2 °F 28.9 °F 92% 29.89 in 0.5 mi NE 4.6 mph - N/A Fog Light Freezing Fog
3:54 PM 32.0 °F 25.6 °F 28.9 °F 88% 29.91 in 1.0 mi NE 6.9 mph - N/A   Overcast
4:54 PM 30.0 °F 24.1 °F 28.9 °F 96% 29.93 in 0.5 mi North 5.8 mph - N/A Fog Light Freezing Fog
5:05 PM 30.2 °F 21.9 °F 28.4 °F 93% 29.90 in 0.2 mi North 9.2 mph - N/A Fog Light Freezing Fog
5:12 PM 30.2 °F 23.4 °F 28.4 °F 93% 29.90 in 0.5 mi NNE 6.9 mph - N/A Fog Light Freezing Fog
5:20 PM 30.2 °F 24.3 °F 28.4 °F 93% 29.90 in 0.2 mi NE 5.8 mph - N/A Fog Light Freezing Fog
5:43 PM 30.2 °F 23.4 °F 28.4 °F 93% 29.91 in 0.2 mi North 6.9 mph - N/A Fog Light Freezing Fog
5:50 PM 30.2 °F 23.4 °F 28.4 °F 93% 29.90 in 0.2 mi North 6.9 mph - N/A Fog Light Freezing Fog
5:54 PM 30.0 °F 24.1 °F 28.9 °F 96% 29.94 in 0.2 mi North 5.8 mph - N/A Fog Light Freezing Fog
6:15 PM 30.2 °F 23.4 °F 28.4 °F 93% 29.91 in 0.8 mi NNE 6.9 mph - N/A   Overcast
6:39 PM 30.2 °F 26.7 °F 28.4 °F 93% 29.92 in 1.2 mi NE 3.5 mph - N/A   Overcast
6:54 PM 30.0 °F 25.2 °F 28.0 °F 92% 29.96 in 1.2 mi North 4.6 mph - N/A   Overcast
7:54 PM 28.9 °F 21.9 °F 28.0 °F 96% 29.99 in 2.5 mi NNE 6.9 mph - N/A   Overcast
8:01 PM 30.2 °F 23.4 °F 28.4 °F 93% 29.95 in 3.0 mi North 6.9 mph - N/A   Overcast
8:09 PM 30.2 °F 22.6 °F 28.4 °F 93% 29.95 in 2.0 mi North 8.1 mph - N/A   Overcast
8:20 PM 30.2 °F 21.9 °F 28.4 °F 93% 29.95 in 1.5 mi NNE 9.2 mph - N/A   Overcast
8:54 PM 30.0 °F 22.4 °F 28.0 °F 92% 29.99 in 1.2 mi NNE 8.1 mph - N/A   Overcast
9:12 PM 30.2 °F 22.6 °F 28.4 °F 93% 29.96 in 2.0 mi NNE 8.1 mph - N/A   Overcast
9:22 PM 30.2 °F 22.6 °F 28.4 °F 93% 29.97 in 1.8 mi North 8.1 mph - N/A   Overcast
9:52 PM 30.2 °F 24.3 °F 28.4 °F 93% 29.97 in 2.0 mi North 5.8 mph - N/A   Overcast
9:54 PM 30.0 °F 24.1 °F 28.0 °F 92% 30.01 in 1.8 mi North 5.8 mph - N/A   Overcast
10:32 PM 30.2 °F 23.4 °F 28.4 °F 93% 29.97 in 2.5 mi North 6.9 mph - N/A   Overcast
10:54 PM 30.0 °F 23.2 °F 28.0 °F 92% 30.01 in 2.0 mi NNE 6.9 mph - N/A   Overcast
11:16 PM 30.2 °F 23.4 °F 28.4 °F 93% 29.97 in 1.8 mi North 6.9 mph - N/A   Overcast
11:54 PM 28.9 °F 21.1 °F 28.0 °F 96% 30.01 in 2.0 mi North 8.1 mph - N/A   Overcast